Regional Weather Roundup
Issued by NWS

Home | Current Version | Previous Version | Text Only | Print | Product List | Glossary Off
Versions: 1 2 3 4 5 6 7 8 9 10 11 12 13 14 15 16 17 18 19 20 21 22 23 24 25 26 27 28 29 30 31 32 33 34 35 36 37 38 39 40 41 42 43 44 45 46 47 48 49 50

000
ASUS43 KDMX 260108
RWRIA

WEATHER ROUNDUP FOR IOWA
NATIONAL WEATHER SERVICE DES MOINES IA
800 PM CDT MON JUL 25 2016

NOTE: "FAIR" INDICATES FEW OR NO CLOUDS BELOW 12,000 FEET WITH NO
SIGNIFICANT WEATHER AND/OR OBSTRUCTIONS TO VISIBILITY.

* - THESE STATIONS ARE NOT NWS STATIONS...THUS NOT UNDER NWS
QUALITY CONTROL.  THEY ALSO DO NOT REPORT WEATHER SUCH
AS PRECIPITATION OR FOG.

IAZ001>003-012>014-020>022-031>034-043>046-260200-
   NORTHWEST IOWA

CITY           SKY/WX    TMP DP  RH WIND       PRES   REMARKS
CARROLL *      CLEAR     81  68  65 CALM      30.06R HX  83
CHEROKEE *     CLEAR     82  64  54 CALM      30.05S HX  83
DENISON *      CLEAR     81  68  65 E3        30.04S HX  83
LE MARS *      CLEAR     84  66  54 SE6       30.05S HX  86
SHELDON *      CLEAR     79  70  73 CALM      30.05S HX  81
SIOUX CITY     CLEAR     84  65  52 S5        30.04S HX  86
SPENCER        CLEAR     82  69  64 CALM      30.06S HX  85
STORM LAKE *   CLEAR     79  68  69 S3        30.07S HX  81
$$

IAZ055>058-069>071-079>083-090>094-260200-
   SOUTHWEST IOWA

CITY           SKY/WX    TMP DP  RH WIND       PRES   REMARKS
ATLANTIC *     CLEAR     81  64  57 NE3       30.05S HX  82
CLARINDA *       N/A     81  68  65 MISG      30.07R HX  83
COUNCIL BLFS * CLEAR     81  68  65 E5        30.06R HX  83
CRESTON *      CLEAR     79  66  65 NE5       30.08R HX  81
HARLAN  *      CLEAR     79  68  69 NE3       30.09R HX  81
LAMONI         CLOUDY    80  66  62 VRB5      30.05R HX  82
RED OAK *      CLEAR     81  68  65 E7        30.05R HX  83
SHENANDOAH *   CLEAR     82  70  65 E6        30.05R HX  86
$$

IAZ047>049-059>061-072>074-084-260200-
   CENTRAL IOWA

CITY           SKY/WX    TMP DP  RH WIND       PRES   REMARKS
AMES           CLEAR     81  67  62 NE6       30.04R HX  83
ANKENY *         N/A    N/A N/A N/A MISG        N/A
BOONE *        CLEAR     79  68  69 CALM      30.05R HX  81
CHARITON *       N/A    N/A N/A N/A MISG        N/A
DES MOINES     PTCLDY    84  62  47 NE7       30.03S HX  85
GRINNELL*      CLEAR     78  62  56 N6        30.05R HX  80
KNOXVILLE *    CLEAR     81  61  50 NE7       30.03S HX  81
MARSHALLTOWN   CLEAR     79  68  69 NE3       30.04R HX  81
NEWTON *       CLEAR     81  66  61 N5        30.03S HX  83
PELLA *        CLEAR     79  63  58 N3        30.04S HX  81
PERRY *          N/A     80  69  69 CALM      30.05S HX  83
$$

IAZ004>006-015-016-023>025-035-036-260200-
   NORTH CENTRAL IOWA

CITY           SKY/WX    TMP DP  RH WIND       PRES   REMARKS
ALGONA *       CLEAR     81  70  69 CALM      30.06S HX  84
ESTHERVILLE    CLEAR     81  68  64 CALM      30.06S HX  84
FORT DODGE *   CLEAR     81  68  65 CALM      30.06S HX  83
MASON CITY     CLEAR     78  66  66 NW5       30.07S HX  80
FOREST CITY *    N/A     79  64  61 CALM      30.06S HX  81
IOWA FALLS *     N/A     79  65  62 NE5       30.06S HX  81
$$

IAZ007>011-017>019-026>030-037>042-050>054-066-260200-
   NORTHEAST IOWA

CITY           SKY/WX    TMP DP  RH WIND       PRES   REMARKS
CEDAR RAPIDS   PTCLDY    78  68  71 N6        30.02S HX  80
CHARLES CITY * CLEAR     77  70  78 N3        30.05S
CLINTON *      CLOUDY    77  70  79 N5        30.02S
DECORAH *      CLEAR     77  64  65 CALM      30.04R
DUBUQUE        CLEAR     76  66  71 NW5       30.04S
MONTICELLO *   CLEAR     79  66  65 CALM      30.03S HX  81
OELWEIN *      CLEAR     79  68  69 CALM      30.05S HX  81
WATERLOO       CLEAR     79  65  62 N5        30.03R HX  81
$$

IAZ064-065-067-068-078-260200-
   EAST CENTRAL IOWA

CITY           SKY/WX    TMP DP  RH WIND       PRES   REMARKS
DAVENPORT      CLOUDY    77  69  76 N5        30.02S
IOWA CITY      CLEAR     80  64  58 N7        30.03S HX  82
MT. PLEASANT * CLOUDY    80  71  75 N3        30.02S HX  83
MUSCATINE *    CLOUDY    79  66  65 N3        30.02S HX  81
QUAD CITIES    PTCLDY    83  64  52 N5        30.00S HX  84
$$

IAZ062-063-075>077-085>089-095>099-260200-
   SOUTHEAST IOWA

CITY           SKY/WX    TMP DP  RH WIND       PRES   REMARKS
BURLINGTON     PTCLDY    78  68  71 N7        30.01S HX  80
FAIRFIELD *    CLEAR     77  68  73 N5        30.03S
KEOKUK *       MOCLDY    81  70  69 CALM      30.01S HX  84
CENTERVILLE *    N/A     79  66  65 CALM      30.06R HX  81
OTTUMWA        CLEAR     80  66  62 NE5       30.02R HX  82
WASHINGTON *   CLEAR     79  68  69 N5        30.03F HX  81
$$

ABBREVIATIONS USED IN REMARKS
   TC - TEMPERATURES IN CELSIUS
  WCI - WIND CHILL INDEX
   HX - HEAT INDEX
  VSB - VISIBILITY
$$




USA.gov is the U.S. government's official web portal to all federal, state and local government web resources and services.